LUCH 5V (SDCM/PRN 141)

Last updated on Wed Nov 05 2025 00:03:27 GMT+0000 (Coordinated Universal Time)

1 39727U 14023A 25308.49488770 -.00000255 00000+0 00000+0 0 9994 2 39727 4.5705 71.8611 0003589 183.0760 61.8811 1.00276074 42104
UTC large
Height (km)
Speed (km/s)
/
Latitude / Longitude
Inclination (degrees)
Orbital Period (minutes)
Azimuth
Elevation
Range (km)
Doppler Factor

Next 0 passes for location: London (51.5072 / 0.1276)

Sorry there are no passes over London.